Home   Weather   Walsrode   Past weeks

Flag for Germany Past Weather in Walsrode, Lower Saxony, Germany — Yesterday and Last 2 Weeks

Now
28 °F

Ice fog.


Feels Like: 23 °F
Forecast: 19 / 31 °F
Wind: 5 mph from Southwest

Location: Fassberg

Current Time: Jan 22, 2017 at 9:32:51 pm

Latest Report: Jan 22, 2017 at 8:20 pm


Visibility: 2 mi

Pressure: 30.30 "Hg

Humidity: 93%

Dew Point: 27 °F

Location of WalsrodeLocation

Past Weather in Walsrode — Graph

°F

Walsrode Temperature Yesterday

Maximum temperature yesterday: 36 °F (at 11:20 am)
Minimum temperature yesterday: 32 °F (at 12:20 am)
Average temperature yesterday: 34 °F

High & Low Weather Summary for the Past Weeks

 TemperatureHumidityPressure
High41 °F (Jan 11, 4:40 pm)100% (Jan 7, 9:20 pm)30.74 "Hg (Jan 7, 9:20 pm)
Low10 °F (Jan 16, 8:20 am)69% (Jan 19, 1:20 pm)28.97 "Hg (Jan 13, 5:20 am)
Average31 °F91%30.10 "Hg
* Reported Jan 7 7:20 pm — Jan 22 7:20 pm, Walsrode, Weather by CustomWeather, © 2017

Note: Actual official high and low records may vary slightly from our data, if they occured in-between our weather recording intervals... More about our weather records

Advertising

Walsrode Weather History for the Previous 24 Hours

Scroll right to see more
 ConditionsComfort  
Time TempWeatherWind HumidityBarometerVisibility
7:20 pm
Sun, Jan 22
28 °FIce fog.2 mph93%30.30 "Hg1 mi
6:20 pm28 °FIce fog.6 mph93%30.30 "Hg2 mi
5:20 pm28 °FIce fog.3 mph93%30.30 "Hg3 mi
4:58 pm30 °FIce fog.3 mph86%30.30 "Hg3 mi
4:20 pm30 °FIce fog.6 mph86%30.30 "Hg3 mi
3:20 pm30 °FPartly sunny.7 mph86%30.30 "Hg4 mi
2:20 pm30 °FPartly sunny.7 mph93%30.30 "Hg4 mi
1:20 pm30 °FPartly sunny.6 mph86%30.33 "Hg4 mi
12:20 pm30 °FPartly sunny.5 mph93%30.33 "Hg4 mi
11:20 am30 °FIce fog.5 mph93%30.36 "Hg3 mi
10:20 am30 °FIce fog.5 mph93%30.36 "Hg2 mi
9:20 am30 °FIce fog.9 mph93%30.36 "Hg2 mi
8:20 am30 °FIce fog.7 mph93%30.36 "Hg3 mi
7:20 am30 °FPassing clouds.6 mph93%30.36 "Hg4 mi
6:20 am30 °FPassing clouds.6 mph93%30.39 "Hg4 mi
5:20 am32 °FLow clouds.5 mph87%30.39 "Hg6 mi
4:20 am32 °FLow clouds.7 mph93%30.39 "Hg6 mi
3:20 am32 °FLow clouds.6 mph93%30.39 "HgN/A
2:20 am32 °FLow clouds.7 mph93%30.42 "HgN/A
1:20 am34 °FLow clouds.8 mph87%30.42 "HgN/A
12:20 am34 °FLow clouds.9 mph87%30.42 "HgN/A
11:20 pm
Sat, Jan 21
34 °FPassing clouds.10 mph87%30.42 "HgN/A
10:20 pm34 °FPassing clouds.5 mph93%30.45 "HgN/A
9:20 pm34 °FPassing clouds.3 mph93%30.45 "HgN/A
Weather by CustomWeather, © 2017

See weather overviewHow to use our weather pages